• In Belarus
  • List of Countries
  • For 7 days
  • Water Temperature
  • Satellite Maps
  • Weather Map
  • Weather Widgets
  • user-avatar
    Login

    Hourly Weather Andon

    Today, 18 October, Thursday

    Time Temperature Precipitation Wind Pressure Humidity
    00:00 +10°C° 0 mm 1 mps 749 mmHg 82%
    01:00 +9°C° 0 mm 1 mps 749 mmHg 82%
    02:00 +9°C° 0 mm 1 mps 749 mmHg 83%
    03:00 +9°C° 0 mm 1 mps 749 mmHg 82%
    04:00 +8°C° 0 mm 1 mps 749 mmHg 82%
    05:00 +8°C° 0 mm 1 mps 750 mmHg 83%
    06:00 +8°C° 0 mm 1 mps 750 mmHg 83%
    07:00 +9°C° 0 mm 1 mps 750 mmHg 80%
    08:00 +11°C° 0 mm 1 mps 750 mmHg 76%
    09:00 +12°C° 0 mm 1 mps 751 mmHg 74%
    10:00 +13°C° 0.1 mm 2 mps 751 mmHg 73%
    11:00 +14°C° 0.1 mm 2 mps 751 mmHg 73%
    12:00 +15°C° 0.1 mm 2 mps 751 mmHg 72%
    13:00 +14°C° 0.2 mm 3 mps 751 mmHg 72%
    14:00 +14°C° 0.2 mm 3 mps 751 mmHg 72%
    15:00 +14°C° 0 mm 3 mps 751 mmHg 76%
    16:00 +13°C° 0.5 mm 3 mps 751 mmHg 80%
    17:00 +12°C° 0.5 mm 3 mps 751 mmHg 84%
    18:00 +12°C° 0.5 mm 2 mps 752 mmHg 88%
    19:00 +12°C° 0.2 mm 2 mps 752 mmHg 89%
    20:00 +12°C° 0.2 mm 2 mps 752 mmHg 90%
    21:00 +10°C° 0.2 mm 2 mps 753 mmHg 90%
    22:00 +10°C° 0.1 mm 2 mps 753 mmHg 90%
    23:00 +10°C° 0.1 mm 2 mps 753 mmHg 90%

    Tomorrow, 19 October, Friday

    Time Temperature Precipitation Wind Pressure Humidity
    00:00 +10°C° 0.1 mm 2 mps 753 mmHg 90%
    01:00 +9°C° 0.1 mm 2 mps 753 mmHg 90%
    02:00 +9°C° 0.1 mm 2 mps 753 mmHg 91%
    03:00 +9°C° 0.1 mm 2 mps 754 mmHg 91%
    04:00 +8°C° 0 mm 2 mps 754 mmHg 91%
    05:00 +8°C° 0 mm 2 mps 754 mmHg 92%
    06:00 +8°C° 0 mm 2 mps 754 mmHg 92%
    07:00 +9°C° 0 mm 2 mps 755 mmHg 87%
    08:00 +10°C° 0 mm 2 mps 755 mmHg 82%
    09:00 +13°C° 0 mm 2 mps 756 mmHg 77%
    10:00 +14°C° 0 mm 2 mps 756 mmHg 69%
    11:00 +16°C° 0 mm 3 mps 756 mmHg 61%
    12:00 +18°C° 0 mm 3 mps 756 mmHg 53%
    13:00 +18°C° 0 mm 3 mps 755 mmHg 52%
    14:00 +18°C° 0 mm 3 mps 755 mmHg 51%
    15:00 +18°C° 0 mm 2 mps 755 mmHg 49%
    16:00 +17°C° 0 mm 2 mps 755 mmHg 57%
    17:00 +15°C° 0 mm 2 mps 755 mmHg 64%
    18:00 +13°C° 0 mm 1 mps 756 mmHg 71%
    19:00 +12°C° 0 mm 1 mps 756 mmHg 75%
    20:00 +11°C° 0 mm 1 mps 756 mmHg 78%
    21:00 +10°C° 0 mm 1 mps 756 mmHg 81%
    22:00 +10°C° 0 mm 1 mps 756 mmHg 82%
    23:00 +10°C° 0 mm 1 mps 757 mmHg 83%

    Day after tomorrow, 20 October, Saturday

    Time Temperature Precipitation Wind Pressure Humidity
    00:00 +8°C° 0 mm 0 mps 757 mmHg 84%
    01:00 +8°C° 0 mm 0 mps 757 mmHg 83%
    02:00 +8°C° 0 mm 0 mps 757 mmHg 83%
    03:00 +7°C° 0 mm 0 mps 757 mmHg 82%
    04:00 +7°C° 0 mm 0 mps 757 mmHg 81%
    05:00 +7°C° 0 mm 0 mps 757 mmHg 80%
    06:00 +6°C° 0 mm 0 mps 757 mmHg 79%
    07:00 +9°C° 0 mm 0 mps 757 mmHg 71%
    08:00 +11°C° 0 mm 0 mps 757 mmHg 63%
    09:00 +13°C° 0 mm 0 mps 757 mmHg 56%
    10:00 +15°C° 0 mm 0 mps 757 mmHg 50%
    11:00 +17°C° 0 mm 0 mps 757 mmHg 44%
    12:00 +19°C° 0 mm 0 mps 757 mmHg 38%
    13:00 +19°C° 0 mm 0 mps 757 mmHg 37%
    14:00 +19°C° 0 mm 0 mps 756 mmHg 36%
    15:00 +19°C° 0 mm 0 mps 756 mmHg 35%
    16:00 +17°C° 0 mm 0 mps 756 mmHg 42%
    17:00 +14°C° 0 mm 0 mps 755 mmHg 49%
    18:00 +12°C° 0 mm 0 mps 755 mmHg 56%
    19:00 +11°C° 0 mm 0 mps 756 mmHg 59%
    20:00 +11°C° 0 mm 0 mps 756 mmHg 63%
    21:00 +10°C° 0 mm 0 mps 756 mmHg 66%
    22:00 +10°C° 0 mm 0 mps 756 mmHg 68%
    23:00 +9°C° 0 mm 0 mps 756 mmHg 70%

    21 October, Sunday

    Time Temperature Precipitation Wind Pressure Humidity
    00:00 +9°C° 0 mm 0 mps 756 mmHg 72%
    01:00 +9°C° 0 mm 0 mps 756 mmHg 73%
    02:00 +8°C° 0 mm 0 mps 756 mmHg 73%
    03:00 +8°C° 0 mm 0 mps 756 mmHg 74%
    04:00 +8°C° 0 mm 0 mps 756 mmHg 74%
    05:00 +7°C° 0 mm 0 mps 756 mmHg 74%
    06:00 +7°C° 0 mm 0 mps 756 mmHg 74%
    07:00 +9°C° 0 mm 0 mps 756 mmHg 67%
    08:00 +11°C° 0 mm 0 mps 756 mmHg 61%
    09:00 +14°C° 0 mm 0 mps 757 mmHg 55%
    10:00 +16°C° 0 mm 0 mps 756 mmHg 50%
    11:00 +18°C° 0 mm 0 mps 756 mmHg 44%
    12:00 +20°C° 0 mm 0 mps 756 mmHg 39%
    13:00 +22°C° 0 mm 1 mps 755 mmHg 38%
    14:00 +22°C° 0 mm 1 mps 755 mmHg 38%
    15:00 +22°C° 0 mm 1 mps 754 mmHg 37%
    16:00 +19°C° 0 mm 1 mps 754 mmHg 44%
    17:00 +15°C° 0 mm 0 mps 754 mmHg 51%
    18:00 +13°C° 0 mm 0 mps 754 mmHg 57%
    19:00 +12°C° 0 mm 0 mps 754 mmHg 60%
    20:00 +12°C° 0 mm 0 mps 755 mmHg 62%
    21:00 +12°C° 0 mm 1 mps 755 mmHg 64%
    22:00 +11°C° 0 mm 0 mps 755 mmHg 66%
    23:00 +10°C° 0 mm 0 mps 755 mmHg 69%

    22 October, Monday

    Time Temperature Precipitation Wind Pressure Humidity
    00:00 +10°C° 0 mm 0 mps 755 mmHg 71%
    01:00 +10°C° 0 mm 0 mps 754 mmHg 72%
    02:00 +9°C° 0 mm 0 mps 754 mmHg 73%
    03:00 +9°C° 0 mm 0 mps 754 mmHg 75%
    04:00 +9°C° 0 mm 0 mps 754 mmHg 75%
    05:00 +8°C° 0 mm 0 mps 754 mmHg 75%
    06:00 +8°C° 0 mm 0 mps 754 mmHg 75%
    07:00 +10°C° 0 mm 0 mps 754 mmHg 70%
    08:00 +12°C° 0 mm 0 mps 755 mmHg 64%
    09:00 +14°C° 0 mm 0 mps 755 mmHg 59%
    10:00 +16°C° 0 mm 0 mps 755 mmHg 54%
    11:00 +20°C° 0 mm 1 mps 754 mmHg 48%
    12:00 +22°C° 0 mm 1 mps 754 mmHg 43%
    13:00 +22°C° 0 mm 1 mps 754 mmHg 43%
    14:00 +22°C° 0 mm 1 mps 753 mmHg 43%
    15:00 +20°C° 0 mm 2 mps 753 mmHg 43%
    16:00 +20°C° 0 mm 1 mps 753 mmHg 49%
    17:00 +18°C° 0 mm 1 mps 753 mmHg 55%
    18:00 +15°C° 0 mm 1 mps 753 mmHg 62%
    19:00 +14°C° 0 mm 0 mps 753 mmHg 63%
    20:00 +13°C° 0 mm 0 mps 753 mmHg 64%
    21:00 +13°C° 0 mm 0 mps 754 mmHg 65%
    22:00 +13°C° 0 mm 0 mps 753 mmHg 65%
    23:00 +13°C° 0 mm 0 mps 753 mmHg 66%

    23 October, Tuesday

    Time Temperature Precipitation Wind Pressure Humidity
    00:00 +12°C° 0 mm 0 mps 753 mmHg 66%
    01:00 +12°C° 0 mm 0 mps 753 mmHg 68%
    02:00 +11°C° 0 mm 0 mps 753 mmHg 69%
    03:00 +11°C° 0 mm 0 mps 753 mmHg 71%
    04:00 +11°C° 0 mm 0 mps 753 mmHg 71%
    05:00 +11°C° 0 mm 0 mps 752 mmHg 72%
    06:00 +10°C° 0 mm 0 mps 752 mmHg 73%
    07:00 +12°C° 0 mm 0 mps 753 mmHg 69%
    08:00 +14°C° 0 mm 1 mps 753 mmHg 65%
    09:00 +16°C° 0 mm 1 mps 753 mmHg 61%
    10:00 +18°C° 0 mm 1 mps 753 mmHg 57%
    11:00 +19°C° 0 mm 2 mps 752 mmHg 53%
    12:00 +20°C° 0 mm 3 mps 752 mmHg 49%
    13:00 +21°C° 0 mm 3 mps 752 mmHg 50%
    14:00 +21°C° 0 mm 3 mps 751 mmHg 51%
    15:00 +21°C° 0 mm 3 mps 751 mmHg 52%
    16:00 +19°C° 0.1 mm 3 mps 751 mmHg 61%
    17:00 +18°C° 0.1 mm 2 mps 751 mmHg 71%
    18:00 +16°C° 0.1 mm 2 mps 751 mmHg 80%
    19:00 +15°C° 0 mm 2 mps 752 mmHg 83%
    20:00 +15°C° 0 mm 1 mps 752 mmHg 87%
    21:00 +14°C° 0 mm 1 mps 752 mmHg 90%
    22:00 +14°C° 0 mm 1 mps 752 mmHg 91%
    23:00 +13°C° 0 mm 1 mps 752 mmHg 92%
    Show more